Location: Rowland
(34.5359°N, 79.2929°W)
Time: 15:15:28
(UTC+00:00)

SR - Pass Details

Date: 04 October 2022
Orbit: 577 x 875 km, 66.7° (Epoch: 28 November)

Event Time Altitude Azimuth Distance (km) Brightness Sun altitude
Rises 09:26:57 0° 351° (N) 3,310 ? -22.8°
Reaches altitude 10° 09:30:56 10° 19° (NNE) 2,305 ? -22.0°
Maximum altitude 09:33:17 13° 46° (NE) 2,062 ? -21.5°
Drops below altitude 10° 09:35:33 10° 72° (ENE) 2,209 ? -21.1°
Sets 09:39:10 0° 101° (E) 3,048 ? -20.3°
